Location: Chippewa Lake
(41.0698°N, 81.9010°W)
Time: 11:43:19
(UTC+00:00)

Cosmos 2084 - Pass Details

Date: 30 September 2021
Orbit: 529 x 652 km, 62.8° (Epoch: 20 October)

Event Time Altitude Azimuth Distance (km) Brightness Sun altitude
Exits shadow 10:18:14 18° 289° (WNW) 1,354 4.8 -13.1°
Maximum altitude 10:19:38 22° 318° (NW) 1,229 4.8 -12.8°
Drops below altitude 10° 10:22:50 10° 10° (N) 1,828 6.2 -12.2°
Sets 10:25:30 0° 26° (NNE) 2,747 7.4 -11.7°
